Regional Weather Roundup
Issued by NWS

Home | Current Version | Previous Version | Graphics & Text | Print | Product List | Glossary On
Versions: 1 2 3 4 5 6 7 8 9 10 11 12 13 14 15 16 17 18 19 20 21 22 23 24 25 26 27 28 29 30 31 32 33 34 35 36 37 38 39 40 41 42 43 44 45 46 47 48 49 50
000
ASUS43 KIND 130309
RWRIN

WEATHER ROUNDUP FOR INDIANA
NATIONAL WEATHER SERVICE INDIANAPOLIS IN
1100 PM EDT SAT JUL 12 2014

NOTE: "FAIR" INDICATES FEW OR NO CLOUDS BELOW 12,000 FEET WITH NO
SIGNIFICANT WEATHER AND/OR OBSTRUCTIONS TO VISIBILITY.

* - STATION DOES NOT REPORT WEATHER SUCH AS PRECIPITATION OR FOG.

+ - STATION NOT QUALITY CONTROLLED BY THE NATIONAL WEATHER SERVICE.
    USE DATA WITH CAUTION...ESPECIALLY DEWPOINT AND RELATIVE
    HUMIDITY OBSERVATIONS.

INZ001>003-010>013-019-020-130400-
NORTHWEST INDIANA

CITY           SKY/WX    TMP DP  RH WIND       PRES   REMARKS
GARY /AIRPORT/ LGT RAIN  77  75  92 S8        29.87F
KNOX *+        MOCLDY    74  70  86 S9        29.91F
LA PORTE +     CLOUDY    73  72  95 S5        29.92F
MICHIGAN CITY+ LGT RAIN  73  70  88 S8        29.90F
MONTICELLO +   PTCLDY    74  73  94 S8        29.94F
RENSSELAER +   MOCLDY    77  75  94 S9        29.93F
VALPARAISO     MOCLDY    74  72  93 VRB5      29.92S

$$

LMZ046-743>745-130400-
SOUTHERN LAKE MICHIGAN

STATION/POSITION TIME  TEMP WIND        PRES
                       AIR  DIR/SP/G
                 (UTC) (F)  (DEG/KT/KT) (MB)
BURNS HARBOR     0300   76  170/  9/ 17 1012.5S
MICHIGAN CITY    0300   76  140/ 11/ 16   N/A

$$

INZ004-005-014>016-021>024-130400-
NORTH CENTRAL INDIANA

CITY           SKY/WX    TMP DP  RH WIND       PRES   REMARKS
GOSHEN         CLOUDY    76  70  82 S6        29.95F
LOGANSPORT +   PTCLDY    72  68  88 S7        29.96S
ROCHESTER +    MOCLDY    75  70  83 S5        29.95F
SOUTH BEND     MOCLDY    76  70  82 S13       29.92F
WARSAW +       MOCLDY    73  70  88 SE3       29.95F

$$

INZ006>009-017-018-025>027-130400-
NORTHEAST INDIANA

CITY           SKY/WX    TMP DP  RH WIND       PRES   REMARKS
ANGOLA *+      CLOUDY    73  66  78 S7        29.97F
AUBURN +       MOCLDY    73  66  78 CALM      29.98F
FORT WAYNE     MOCLDY    73  68  84 S7        29.98F
HUNTINGTON +   PTCLDY    73  68  86 S5        29.97F

$$

INZ028-029-035-036-043>045-051>053-130400-
WEST CENTRAL INDIANA

CITY           SKY/WX    TMP DP  RH WIND       PRES   REMARKS
GREENCASTLE +  CLEAR     73  72  94 S6        30.02F
LAFAYETTE      PTCLDY    75  72  90 S7        29.96S
TERRE HAUTE    CLEAR     76  72  87 S7        30.01R

$$

INZ030>032-037>040-046>048-054>057-064-065-130400-
CENTRAL INDIANA

CITY           SKY/WX    TMP DP  RH WIND       PRES   REMARKS
CP ATTERBURY + MOCLDY    77  68  73 S6        30.04R
INDIANAPOLIS   MOCLDY    74  69  85 S8        30.00F
-EAGLE CREEK   PTCLDY    75  69  81 S6        30.00S
KOKOMO *+      PTCLDY    73  70  88 SW12      29.98S
MARION +       PTCLDY    72  68  89 S8        29.99F
MT COMFORT *+  MOCLDY    75  75 100 SW7       30.03R
SHELBYVILLE    CLOUDY    77  70  79 S6        30.03R
ZIONSVILLE +   PTCLDY    76  69  78 S12       30.01F

$$

INZ033-034-041-042-049-050-058-059-130400-
EAST CENTRAL INDIANA

CITY           SKY/WX    TMP DP  RH WIND       PRES   REMARKS
MUNCIE         MOCLDY    76  68  76 S7        30.01S

$$

INZ060-061-067>069-081>083-085>088-130400-
SOUTHWEST INDIANA

CITY           SKY/WX    TMP DP  RH WIND       PRES   REMARKS
EVANSVILLE     PTCLDY    81  72  74 S7        30.05R
HUNTINGBURG *+ PTCLDY    77  70  78 SW7       30.06R
WASHINGTON +   PTCLDY    75  74  95 S6        30.03R

$$

INZ062-063-066-070>080-084-089>092-130400-
SOUTH CENTRAL AND SOUTHEAST INDIANA

CITY           SKY/WX    TMP DP  RH WIND       PRES   REMARKS
BLOOMINGTON    CLEAR     76  70  82 SW6       30.04R

$$



USA.gov is the U.S. government's official web portal to all federal, state and local government web resources and services.